Massena, NY

5:39 AM EST on February 09, 2016 (GMT -0500)
Massena International-Richards

Weather History for KMSS - November, 2014

Change the Weather History Date:

Tuesday, November 4, 2014

  Actual Average Record
Temperature  
Mean Temperature 46 °F 40 °F  
Max Temperature 61 °F 49 °F 71 °F (1961)
Min Temperature 31 °F 31 °F 18 °F (1984)
Degree Days  
Heating Degree Days 19 25  
Month to date heating degree days 96 99  
Since 1 July heating degree days 785 980  
Cooling Degree Days 0 0  
Month to date cooling degree days 0 0  
Year to date cooling degree days 336 363  
Moisture  
Dew Point 39 °F    
Average Humidity 66    
Maximum Humidity 96    
Minimum Humidity 36    
Precipitation  
Precipitation 0.07 in 0.11 in 1.62 in (1950)
Month to date precipitation 0.07 0.46  
Year to date precipitation 28.78 29.96  
Sea Level Pressure  
Sea Level Pressure 29.93 in    
Wind  
Wind Speed 7 mph (SSW)    
Max Wind Speed 22 mph    
Max Gust Speed 29 mph    
Visibility 9 miles    
Events Rain    
T = Trace of Precipitation, MM = Missing Value Source: NWS Daily Summary

Daily Weather History Graph

Daily Weather History Graph

Search for Another Location

Airport or City:

Trip Planner

Search our weather history database for the weather conditions in past years. The results will help you decide how hot, cold, wet, or windy it might be!

Date:

Astronomy

Nov. 04, 2014 Rise Set
Actual Time 6:41 AM EST 4:43 PM EST
Civil Twilight 6:10 AM EST 5:14 PM EST
Nautical Twilight 5:36 AM EST 5:49 PM EST
Astronomical Twilight 5:01 AM EST 6:23 PM EST
Moon 3:34 PM EST (11/4) 3:49 AM EST (11/4)
Length of Visible Light 11h 03m
Length of Day
10h 01m
Waxing Gibbous, 94% of the Moon is Illuminated
Nov 4
Waxing Gibbous
Nov 6
Full
Nov 14
Last Quarter
Nov 22
New
Nov 29
First Quarter

Hourly Weather History & Observations

Time (EST) Temp. Windchill Dew Point Humidity Pressure Visibility Wind Dir Wind Speed Gust Speed Precip Events Conditions
12:53 AM 30.9 °F - 28.0 °F 89% 30.06 in 10.0 mi Calm Calm - N/A   Clear
1:53 AM 34.0 °F - 32.0 °F 92% 30.05 in 10.0 mi Calm Calm - N/A   Overcast
2:53 AM 43.0 °F 39.5 °F 39.0 °F 86% 30.05 in 10.0 mi SW 5.8 mph - N/A   Overcast
3:53 AM 44.1 °F 40.8 °F 39.0 °F 82% 30.04 in 10.0 mi SW 5.8 mph - N/A   Overcast
4:53 AM 46.0 °F 42.5 °F 39.0 °F 76% 30.05 in 10.0 mi SW 6.9 mph - N/A   Overcast
5:53 AM 45.0 °F 43.5 °F 39.9 °F 82% 30.04 in 10.0 mi SSE 3.5 mph - N/A   Overcast
6:53 AM 44.6 °F - 39.2 °F 81% 30.03 in 10.0 mi Calm Calm - N/A   Overcast
7:53 AM 46.9 °F - 41.0 °F 80% 30.04 in 10.0 mi Calm Calm - N/A   Overcast
8:53 AM 48.9 °F - 39.9 °F 71% 30.02 in 10.0 mi Calm Calm - N/A   Overcast
9:53 AM 52.0 °F - 39.9 °F 63% 30.00 in 10.0 mi SSE 4.6 mph - N/A   Overcast
10:53 AM 54.0 °F - 41.0 °F 62% 29.98 in 10.0 mi South 3.5 mph - N/A   Mostly Cloudy
11:53 AM 59.0 °F - 37.9 °F 46% 29.94 in 10.0 mi SSW 9.2 mph - N/A   Scattered Clouds
12:53 PM 60.1 °F - 33.1 °F 36% 29.93 in 10.0 mi SSW 13.8 mph 21.9 mph N/A   Overcast
1:53 PM 60.1 °F - 33.1 °F 36% 29.90 in 10.0 mi SW 12.7 mph 24.2 mph N/A   Overcast
2:53 PM 60.1 °F - 33.1 °F 36% 29.87 in 10.0 mi SSW 5.8 mph - N/A   Overcast
3:53 PM 60.1 °F - 34.0 °F 38% 29.87 in 10.0 mi SSW 8.1 mph - N/A   Overcast
4:53 PM 59.0 °F - 35.1 °F 41% 29.86 in 10.0 mi SW 9.2 mph - N/A   Overcast
5:53 PM 57.0 °F - 36.0 °F 45% 29.84 in 10.0 mi SW 3.5 mph - 0.00 in   Overcast
6:53 PM 55.9 °F - 39.0 °F 53% 29.84 in 10.0 mi West 6.9 mph - 0.00 in   Overcast
7:53 PM 55.9 °F - 39.9 °F 55% 29.84 in 10.0 mi WSW 9.2 mph - N/A   Overcast
8:53 PM 55.0 °F - 42.1 °F 62% 29.85 in 10.0 mi SW 10.4 mph - N/A   Overcast
9:53 PM 54.0 °F - 45.0 °F 72% 29.85 in 10.0 mi SW 12.7 mph - 0.00 in Rain Light Rain
10:53 PM 52.0 °F - 48.0 °F 86% 29.83 in 5.0 mi SSW 17.3 mph 26.5 mph 0.02 in Rain Light Rain
11:07 PM 53.1 °F - 50.0 °F 89% 29.82 in 5.0 mi SSW 18.4 mph 27.6 mph 0.01 in Rain Light Rain
11:38 PM 52.0 °F - 50.0 °F 93% 29.83 in 5.0 mi SSW 18.4 mph 25.3 mph 0.04 in Rain Light Rain
11:53 PM 53.1 °F - 50.0 °F 89% 29.82 in 7.0 mi SSW 15.0 mph 26.5 mph 0.05 in Rain Light Rain